Location: Unspecified
(47.5840°N, 122.3000°W)
Time: 19:53:40
(UTC+00:00)

USA 59 Rocket - Pass Details

Date: 17 March 2026
Orbit: 368 x 1667 km, 63.3° (Epoch: 14 April)

Event Time Altitude Azimuth Distance (km) Brightness Sun altitude
Exits shadow 13:38:28 - 302° (WNW) 2,075 2.3 -7.5°
Reaches altitude 10° 13:39:37 10° 293° (WNW) 1,678 1.8 -7.3°
Maximum altitude 13:42:41 25° 237° (WSW) 1,169 1.0 -6.8°
Drops below altitude 10° 13:46:33 10° 182° (S) 2,148 2.8 -6.1°
Sets 13:49:38 0° 170° (S) 3,312 3.9 -5.6°
